Regional Weather Roundup
Issued by NWS Cleveland, OH

Home | Current Version | Previous Version | Graphics & Text | Print | Product List | Glossary On
Versions: 1 2 3 4 5 6 7 8 9 10 11 12 13 14 15 16 17 18 19 20 21 22 23 24 25 26 27 28 29 30 31 32 33 34 35 36 37 38 39 40 41 42 43 44 45 46 47 48 49 50
000
ASUS41 KCLE 300210
RWRCLE
OHIO REGIONAL WEATHER ROUNDUP
NATIONAL WEATHER SERVICE CLEVELAND, OH
1000 PM EDT SAT AUG 29 2015

NOTE: "FAIR" INDICATES FEW OR NO CLOUDS BELOW 12,000 FEET WITH NO
SIGNIFICANT WEATHER AND/OR OBSTRUCTIONS TO VISIBILITY.

OHZ001>008-015>018-024>027-034-035-043-044-300300-
   NORTHWEST OHIO

CITY           SKY/WX    TMP DP  RH WIND       PRES   REMARKS
DEFIANCE       LGT RAIN  71  68  90 NE3       30.07R FOG
FINDLAY        CLOUDY    75  67  76 NE7       30.07R
TOLEDO EXPRESS CLOUDY    69  68  96 CALM      30.07R FOG
TOLEDO EXEC    CLOUDY    71  67  87 CALM      30.08R
LIMA           CLOUDY    71  68  90 CALM      30.08R
$$

OHZ009>014-019>023-028>033-038-089-300300-
   NORTHEAST OHIO

CITY           SKY/WX    TMP DP  RH WIND       PRES   REMARKS
CLE-HOPKINS    CLOUDY    73  64  73 E5        30.10R
CLE-LAKEFRONT  CLOUDY    72  67  84 SE3       30.07R
CUY CO. ARPT   LGT RAIN  70  68  94 E9        30.09S
LORAIN-ELYRIA  CLOUDY    70  64  81 E3        30.09R
ASHTABULA      LGT RAIN  66  64  93 N5        30.12R
AKRON-CANTON   MOCLDY    74  63  68 SW5       30.10R
WOOSTER        MOCLDY    72  63  73 SW3       30.11R
MANSFIELD      CLOUDY    74  62  66 S9        30.11R
YOUNGSTOWN     CLOUDY    71  63  75 SE7       30.10R
$$

OHZ042-051>053-060>062-070>072-077>081-300300-
  SOUTHWEST OHIO

CITY           SKY/WX    TMP DP  RH WIND       PRES   REMARKS
CINC-COVINGTON MOCLDY    73  64  73 S5        30.08R
CINC-LUNKEN    CLOUDY    70  70 100 CALM      30.08R
HAMILTON       CLOUDY    72  68  87 CALM      30.08R
DAYTON         CLOUDY    72  66  81 SE7       30.09R
WRIGHT-PAT AFB MOCLDY    74  67  81 S3        30.07R
DAYTON GENERAL LGT RAIN  73  67  81 S3        30.08R
WILMINGTON     CLOUDY    70  66  87 S3        30.09R
$$

OHZ036-037-039>041-045>050-054>059-063>069-073>076-082>088-300300-
  CENTRAL AND SOUTHEAST OHIO

CITY           SKY/WX    TMP DP  RH WIND       PRES   REMARKS
COLUMBUS       CLOUDY    71  64  78 E5        30.08R
OSU AIRPORT    CLOUDY    71  68  90 E3        30.09R
BOLTON FIELD   CLOUDY    70  69  96 CALM      30.09R
RICKENBACK AFB CLOUDY    72  67  82 E3        30.08R
NEWARK         MOCLDY    71  67  87 SE5       30.09S
MARION         CLOUDY    72  65  78 S6        30.09R
LANCASTER      CLOUDY    71  67  87 NE6       30.10R
ZANESVILLE     MOCLDY    75  62  64 CALM      30.10R
NEW PHILLY     MOCLDY    70  66  87 SE5       30.10R
$$


USA.gov is the U.S. government's official web portal to all federal, state and local government web resources and services.